Погода в Белебёлке

Россия / Новгородская область     57°34′07″N   30°55′16″E
темп.,
°C
ветер,
м/с
пор.,
м/с
влажн.,
%
обл.,
%
осадки,
мм/ч
давл.,
гПа
погр.,
м
13 апреля, вт
вт1300:00+9ююв41276100 0.0 1022477
03:00+10ю41093100 0.1 1021516
06:00+9ююв2696100 0.0 1021221
09:00+11ююз2582100 0.0 1021329
12:00+15ю2360100 0.0 1020938
15:00+16ю2357100 0.0 10191363
18:00+12ююв2585100 0.4 1018138
21:00+11вюв1196100 2.3 101812
14 апреля, ср
ср1400:00+10вюв1499100 1.0 1017158
03:00+10ю2598100 1.1 1016203
06:00+8ссз3597100 0.1 1016295
09:00+5с4892100 0.3 1017388
12:00+4с3691100 0.1 1019463
15:00+4с3793100 0.1 1020458
18:00+4с4993100 0.0 1020499
21:00+4ссв4109392 0.0 1021482
15 апреля, чт
чт1500:00+4ссв4118889 0.0 1021499
03:00+3ссв4128287 0.0 1022430
06:00+2ссв4128287 0.0 1022430
09:00+4ссв5128094 0.0 1022494
12:00+5ссв51179100 0.1 1023745
15:00+5св51184100 0.6 1023889
18:00+5св61387100 2.0 1023851
21:00+5св61292100 3.5 1023723
16 апреля, пт
пт1600:00+4св51394100 1.3 1023661
03:00+4св51393100 1.6 1023593
06:00+4св5129395 0.1 1023538
09:00+5св5118793 0.1 1024547
12:00+8св597780 0.0 1024754
15:00+11всв686789 0.0 10241050
18:00+11св596719 0.0 10241089
21:00+7св512736 0.0 1025556
17 апреля, сб
сб1700:00+5св41276100 0.0 1025453
03:00+5св41274100 0.0 1026475
06:00+4св4127699 0.0 1027436
09:00+6всв41169100 0.0 1027515
12:00+9всв5958100 0.0 1028723
15:00+13всв585098 0.0 10281174
18:00+13всв595327 0.0 10281117
21:00+8всв412625 0.0 1029361